Girona, Spain

1:54 PM CEST on April 19, 2018 (GMT +0200)
Girona

Weather History for LEGE - January, 2018

Change the Weather History Date:

Friday, January 12, 2018

  Actual Average Record
Temperature  
Mean Temperature 43 °F -  
Max Temperature 58 °F 56 °F 68 °F (2007)
Min Temperature 28 °F 35 °F 24 °F (2000)
Degree Days  
Heating Degree Days 22    
Moisture  
Dew Point 34 °F    
Average Humidity 76    
Maximum Humidity 100    
Minimum Humidity 23    
Precipitation  
Precipitation 0.00 in 0.07 in - ()
Sea Level Pressure  
Sea Level Pressure 30.14 in    
Wind  
Wind Speed 2 mph ()    
Max Wind Speed 10 mph    
Max Gust Speed -    
Visibility 7.5 miles    
Events      
Averages and records for this station are not official NWS values.
T = Trace of Precipitation, MM = Missing Value Source: Averaged Metar Reports

Daily Weather History Graph

Daily Weather History Graph

Search for Another Location

Airport or City:

Astronomy

Jan. 12, 2018 Rise Set
Actual Time 8:15 AM CET 5:39 PM CET
Civil Twilight 7:44 AM CET 6:10 PM CET
Nautical Twilight 7:09 AM CET 6:44 PM CET
Astronomical Twilight 6:36 AM CET 7:18 PM CET
Moon 4:05 AM CET (1/12) 2:29 PM CET (1/12)
Length of Visible Light 10h 25m
Length of Day
9h 23m
Waning Crescent, 18% of the Moon is Illuminated
Jan 12
Waning Crescent
Jan 17
New
Jan 24
First Quarter
Jan 31
Full
Feb 7
Last Quarter

Hourly Weather History & Observations

Time (CET) Temp. Windchill Dew Point Humidity Pressure Visibility Wind Dir Wind Speed Gust Speed Precip Events Conditions
12:00 AM 40 °F - 37 °F 83% 30.09 in - NW 3.5 mph - -  
12:00 AM 41.0 °F 39.0 °F 37.4 °F 87% 30.06 in 6.2 mi NW 3.5 mph - N/A   Partly Cloudy
12:30 AM 37.4 °F - 35.6 °F 93% 30.06 in 6.2 mi Calm Calm - N/A   Partly Cloudy
1:00 AM 36 °F - 34 °F 89% 30.09 in - East 2.3 mph - -  
1:00 AM 37.4 °F - 35.6 °F 93% 30.06 in 6.2 mi North 1.2 mph - N/A   Partly Cloudy
1:30 AM 35.6 °F - 35.6 °F 100% 30.06 in 6.2 mi Calm Calm - N/A   Partly Cloudy
2:00 AM 34 °F - 33 °F 94% 30.09 in - Calm Calm - -  
2:00 AM 33.8 °F - 33.8 °F 100% 30.06 in 6.2 mi Calm Calm - N/A   Partly Cloudy
2:30 AM 35.6 °F - 35.6 °F 100% 30.09 in 6.2 mi Calm Calm - N/A   Partly Cloudy
3:00 AM 33 °F - 32 °F 92% 30.10 in - Calm Calm - -  
3:00 AM 33.8 °F - 33.8 °F 100% 30.09 in - Calm Calm - N/A   Clear
3:30 AM 33.8 °F - 33.8 °F 100% 30.09 in - West 2.3 mph - N/A   Clear
4:00 AM 31 °F - 31 °F 97% 30.11 in - East 2.3 mph - -  
4:30 AM 30.2 °F - 30.2 °F 100% 30.09 in - NE 2.3 mph - N/A   Clear
5:00 AM 31 °F - 30 °F 96% 30.12 in - NE 2.3 mph - -  
5:00 AM 30.2 °F - 30.2 °F 100% 30.09 in - Variable 1.2 mph - N/A   Clear
5:30 AM 30.2 °F - 30.2 °F 100% 30.09 in 5.6 mi Calm Calm - N/A   Unknown
6:00 AM 29 °F - 29 °F 100% 30.13 in - SSW 2.3 mph - -  
6:00 AM 30.2 °F - 30.2 °F 100% 30.12 in 5.6 mi Calm Calm - N/A   Unknown
6:30 AM 30.2 °F - 30.2 °F 100% 30.12 in 5.6 mi Calm Calm - N/A   Unknown
7:00 AM 29 °F - 29 °F 99% 30.15 in - NE 3.5 mph - -  
7:00 AM 30.2 °F 26.7 °F 30.2 °F 100% 30.12 in - NE 3.5 mph - N/A   Clear
7:30 AM 30.2 °F - 30.2 °F 100% 30.12 in - WNW 1.2 mph - N/A   Clear
8:00 AM 29 °F - 29 °F 100% 30.16 in - NE 3.5 mph - -  
8:00 AM 30.2 °F - 30.2 °F 100% 30.15 in - Variable 2.3 mph - N/A   Clear
8:30 AM 30.2 °F - 30.2 °F 100% 30.15 in - Variable 1.2 mph - N/A   Clear
9:00 AM 32.0 °F - 32.0 °F 100% 30.15 in - Calm Calm - N/A   Clear
9:30 AM 33.8 °F - 33.8 °F 100% 30.15 in - Calm Calm - N/A   Clear
10:00 AM 39 °F - 35 °F 82% 30.18 in 25 mi Calm Calm - -   Clear
10:00 AM 37.4 °F - 35.6 °F 93% 30.18 in - Calm Calm - N/A   Clear
10:30 AM 41.0 °F - 37.4 °F 87% 30.18 in - Calm Calm - N/A   Clear
11:00 AM 45 °F - 38 °F 70% 30.19 in - Calm Calm - -  
11:00 AM 42.8 °F - 37.4 °F 81% 30.18 in - Calm Calm - N/A   Clear
11:30 AM 46.4 °F - 37.4 °F 71% 30.18 in - Variable 2.3 mph - N/A   Clear
12:00 PM 51 °F - 35 °F 43% 30.17 in - West 1.2 mph - -  
12:00 PM 50.0 °F - 35.6 °F 58% 30.18 in - Variable 1.2 mph - N/A   Clear
12:30 PM 51.8 °F - 37.4 °F 58% 30.15 in - South 3.5 mph - N/A   Clear
1:00 PM 55 °F - 36 °F 36% 30.14 in 25 mi South 2.3 mph - -   Scattered Clouds
1:00 PM 53.6 °F - 35.6 °F 51% 30.15 in - South 1.2 mph - N/A   Clear
1:30 PM 55.4 °F - 32.0 °F 41% 30.12 in - Variable 1.2 mph - N/A   Clear
2:00 PM 56 °F - 37 °F 37% 30.12 in - SSW 6.9 mph - -  
2:00 PM 55.4 °F - 35.6 °F 47% 30.12 in 6.2 mi SSW 4.6 mph - N/A   Partly Cloudy
2:30 PM 55.4 °F - 33.8 °F 44% 30.12 in 6.2 mi SW 6.9 mph - N/A   Partly Cloudy
3:00 PM 58 °F - 31 °F 23% 30.12 in - South 2.3 mph - -  
3:00 PM 57.2 °F - 32.0 °F 38% 30.12 in 6.2 mi Calm Calm - N/A   Partly Cloudy
3:30 PM 57.2 °F - 32.0 °F 38% 30.12 in 6.2 mi SSW 1.2 mph - N/A   Partly Cloudy
4:00 PM 58 °F - 31 °F 24% 30.12 in 25 mi South 2.3 mph - -   Scattered Clouds
4:00 PM 55.4 °F - 32.0 °F 41% 30.12 in 6.2 mi Variable 2.3 mph - N/A   Partly Cloudy
4:30 PM 55.4 °F - 33.8 °F 44% 30.12 in 6.2 mi SSW 3.5 mph - N/A   Partly Cloudy
5:00 PM 55 °F - 35 °F 34% 30.14 in 25 mi South 10.4 mph - -   Partly Cloudy
5:00 PM 53.6 °F - 35.6 °F 51% 30.15 in - South 10.4 mph - N/A   Clear
5:30 PM 51.8 °F - 35.6 °F 54% 30.15 in 6.2 mi South 8.1 mph - N/A   Mostly Cloudy
6:00 PM 50 °F - 34 °F 42% 30.16 in - South 5.8 mph - -  
6:00 PM 50.0 °F - 33.8 °F 54% 30.15 in - South 6.9 mph - N/A   Clear
6:30 PM 46.4 °F 44.3 °F 33.8 °F 62% 30.15 in - South 4.6 mph - N/A   Clear
7:00 PM 46 °F - 35 °F 53% 30.18 in 19 mi South 3.5 mph - -   Partly Cloudy
7:00 PM 46.4 °F - 35.6 °F 66% 30.18 in - South 2.3 mph - N/A   Clear
7:30 PM 44.6 °F - 35.6 °F 71% 30.18 in - Calm Calm - N/A   Clear
8:00 PM 43 °F - 34 °F 61% 30.19 in - ENE 1.2 mph - -  
8:00 PM 41.0 °F - 35.6 °F 81% 30.18 in - Calm Calm - N/A   Clear
8:30 PM 41.0 °F - 33.8 °F 76% 30.18 in - Calm Calm - N/A   Clear
9:00 PM 40 °F - 33 °F 69% 30.21 in - Calm Calm - -  
9:00 PM 39.2 °F - 33.8 °F 81% 30.21 in - Calm Calm - N/A   Clear
9:30 PM 37.4 °F - 33.8 °F 87% 30.21 in - Calm Calm - N/A   Clear
10:00 PM 39 °F - 34 °F 76% 30.22 in 19 mi Calm Calm - -   Clear
10:00 PM 39.2 °F - 35.6 °F 87% 30.21 in - Calm Calm - N/A   Clear
10:30 PM 33.8 °F - 32.0 °F 93% 30.21 in - NE 1.2 mph - N/A   Clear
11:00 PM 35 °F - 32 °F 85% 30.23 in - Calm Calm - -  
11:00 PM 35.6 °F - 33.8 °F 93% 30.21 in - Calm Calm - N/A   Clear
11:30 PM 33.8 °F - 32.0 °F 93% 30.21 in - Calm Calm - N/A   Clear